Theta_e
309 309 309 309 309 309 309 309 309 309 309 309 309 308 308 308 308 307 307 307 307 307 307 306 307 306 307 310 314 316 316 315 314 314 315 317 316 315 316 316 317 316 314 313 314 314 313 314 314 314 316 317 318 319 318 321 329 331 326 322 323 327 327 331 331 323 319 323 323 321 319 318 320 320 316 313 315 318 316 317 318 315 312 310 309 309 309 310
309 309 309 309 309 309 309 309 309 309 309 309 309 308 308 308 308 308 308 307 307 307 307 307 307 307 307 307 312 315 315 315 316 317 317 317 317 316 317 317 316 315 313 313 315 314 315 316 313 314 319 320 319 318 319 321 322 329 329 323 326 331 330 330 328 321 318 318 320 322 320 318 319 319 315 315 320 318 317 318 317 317 315 310 307 306 308 307
310 309 309 309 309 309 309 309 309 308 308 309 309 309 308 308 308 307 307 307 308 308 307 308 307 307 307 306 310 314 316 317 320 322 319 319 319 317 317 317 315 313 312 312 314 314 316 317 312 315 320 319 322 321 323 322 321 329 328 324 332 333 327 327 324 320 320 318 320 321 318 317 319 317 314 316 320 319 318 318 317 318 318 316 308 304 306 305
310 310 310 310 310 309 309 309 309 309 309 308 308 308 308 308 308 308 308 308 308 308 308 308 308 308 307 308 312 315 316 317 319 321 319 318 319 318 318 318 315 312 312 313 315 316 316 315 312 315 317 319 324 323 325 325 322 326 323 325 334 327 323 325 323 321 321 318 318 320 316 317 318 316 315 317 317 317 318 316 317 319 318 317 309 303 304 304
311 311 311 310 310 310 310 309 309 309 309 309 309 309 308 308 308 308 308 308 308 308 308 308 308 308 308 310 314 316 316 314 315 319 318 317 318 318 319 318 314 312 311 314 317 317 315 313 313 316 316 318 322 320 326 328 322 323 322 324 327 322 320 321 322 322 321 318 317 319 317 316 316 315 317 317 316 316 317 317 316 317 317 316 310 305 303 303
312 312 311 311 311 310 310 310 310 310 310 309 309 309 309 309 309 309 308 309 308 308 309 308 308 308 309 311 314 315 314 311 314 318 317 317 316 317 318 317 313 311 311 314 317 315 315 314 314 319 318 317 320 319 323 323 319 322 323 321 321 319 318 319 320 320 320 317 316 317 316 316 316 317 318 317 316 315 318 321 318 316 314 311 308 305 305 305
313 313 312 312 311 311 311 310 310 310 310 310 310 310 310 310 310 310 309 309 309 308 309 308 309 309 310 312 316 320 319 315 315 315 316 317 316 317 317 315 312 310 311 314 315 314 317 316 316 320 319 318 321 320 319 318 318 321 322 321 320 319 318 318 318 318 319 317 316 316 314 315 317 317 317 316 315 314 316 320 320 315 308 308 308 307 306 306
313 313 312 312 312 311 311 311 310 311 311 310 310 310 311 311 310 311 310 310 310 309 309 308 309 310 311 315 320 325 323 319 315 316 318 317 317 316 316 314 311 310 311 312 313 315 317 318 317 319 319 319 320 320 318 317 318 321 322 321 319 318 319 318 317 317 318 317 315 314 314 316 316 315 314 315 314 313 314 316 318 315 310 311 311 308 307 306
313 313 312 312 312 312 311 311 311 311 311 311 311 311 311 311 311 311 310 311 310 310 309 308 309 310 312 315 318 320 320 318 317 319 320 318 317 316 315 313 311 310 310 312 312 313 315 318 320 318 319 321 319 319 320 319 321 322 321 320 318 318 318 317 317 317 317 317 315 314 316 316 314 314 314 315 314 313 314 315 315 315 315 315 312 308 307 307
313 313 313 313 313 312 312 312 312 312 311 311 311 311 311 311 311 311 311 311 311 310 310 308 309 312 313 314 316 316 316 317 318 319 319 318 317 315 314 313 311 310 310 311 311 311 314 317 317 316 317 319 317 317 319 318 320 319 317 318 317 316 316 315 316 316 314 316 316 315 316 316 314 313 315 316 316 315 316 315 313 313 314 313 311 309 306 307
314 314 314 314 314 314 313 313 313 313 312 312 311 311 311 311 310 310 311 311 311 311 310 309 309 312 314 315 315 315 315 316 316 316 317 317 316 314 313 312 311 310 310 311 311 312 313 313 314 314 315 316 316 316 317 316 316 316 315 317 317 316 316 315 315 316 314 315 317 315 315 315 313 313 315 315 316 316 316 317 316 313 313 312 311 310 307 306
314 314 314 314 314 314 314 313 313 313 313 312 312 312 312 311 311 311 310 310 310 311 310 310 309 311 315 317 317 315 314 316 316 315 315 315 314 314 312 312 311 311 311 310 311 312 312 312 313 315 316 315 315 316 315 315 314 315 315 316 317 317 316 315 315 316 314 315 317 315 315 317 316 315 316 314 315 315 315 317 317 315 313 311 311 310 309 307
315 315 314 314 314 314 313 313 312 312 312 312 313 313 313 313 312 311 311 310 309 310 310 310 310 311 315 319 317 314 313 315 315 315 315 314 313 313 312 311 312 312 312 310 311 314 314 314 314 316 316 315 316 315 313 314 315 315 315 315 316 316 318 316 316 316 315 315 317 315 316 321 320 316 315 314 313 313 315 315 314 314 313 311 311 310 309 308
315 315 314 314 314 314 313 312 311 311 311 311 312 313 313 313 313 312 311 310 308 308 310 310 311 312 316 319 315 314 315 314 315 315 315 314 312 312 312 312 312 313 313 312 312 314 315 314 313 314 313 314 316 313 314 318 318 316 314 316 317 316 318 316 315 316 315 315 315 315 317 319 319 317 316 315 314 314 316 317 314 312 312 311 311 310 310 309
315 315 314 314 314 314 313 312 311 310 310 310 311 312 313 313 314 313 312 311 308 309 311 311 312 314 317 319 314 314 316 314 315 315 315 314 313 312 312 312 312 313 313 312 312 313 314 313 313 315 315 314 314 314 320 324 324 321 315 317 321 318 317 316 315 316 315 315 312 315 318 317 316 316 316 315 315 315 316 317 316 313 312 311 311 310 311 310
316 315 314 314 314 314 314 312 310 309 309 309 309 310 311 313 314 313 313 311 309 309 311 312 314 315 316 317 315 315 315 314 316 315 315 314 313 313 312 312 311 312 312 312 312 312 313 312 312 315 316 313 315 319 321 321 326 326 317 316 321 319 316 316 318 318 316 315 313 314 318 318 317 317 318 316 314 314 315 315 314 313 313 311 310 310 310 311
316 315 315 315 315 314 314 312 310 310 310 310 309 309 310 312 313 313 312 310 310 310 311 315 315 314 314 314 314 315 314 314 316 316 315 314 313 313 312 311 311 311 311 311 312 311 312 313 311 314 317 315 318 322 320 318 322 322 317 317 319 318 315 316 319 319 316 315 315 314 314 316 317 318 320 318 314 314 314 315 314 313 312 312 312 311 310 310
316 316 316 315 315 315 315 314 312 311 311 311 310 310 311 312 313 312 311 312 312 311 313 317 315 312 315 315 315 316 315 314 315 315 314 313 312 313 313 311 309 310 311 311 312 311 312 315 315 317 319 316 316 318 318 318 318 317 318 319 319 318 315 315 316 316 315 315 316 315 314 314 314 314 316 315 314 313 314 314 313 313 312 312 312 311 311 310
317 317 316 316 316 316 315 314 313 312 312 311 310 311 313 315 315 313 313 315 317 315 315 317 316 314 317 317 315 315 315 315 315 314 313 313 313 313 313 311 310 311 313 314 314 313 314 318 319 318 318 316 314 314 315 316 315 316 316 316 317 316 314 314 314 314 316 315 315 316 314 314 313 313 313 313 313 313 313 312 312 311 312 311 312 312 312 311
317 317 317 317 317 316 316 315 314 313 312 312 312 312 317 321 321 318 316 318 319 318 318 318 317 317 316 316 316 315 316 315 315 315 312 312 313 312 311 311 313 313 314 319 319 314 314 317 319 318 316 315 315 314 314 314 314 314 314 314 315 314 312 312 312 313 315 314 315 316 315 314 314 313 313 313 313 313 313 313 312 311 310 311 312 312 312 312
318 318 318 318 317 317 316 315 314 314 312 312 313 314 318 318 317 318 317 318 315 311 316 317 314 316 315 314 315 315 318 317 315 314 313 312 312 313 313 312 314 314 315 321 321 314 313 316 318 317 315 314 314 314 313 313 313 313 314 315 314 314 313 312 312 313 314 314 314 315 315 314 313 314 313 313 313 313 313 313 313 312 311 311 311 311 312 312
318 319 318 318 318 317 316 315 315 313 311 312 313 312 312 309 310 311 311 317 316 309 312 314 312 314 313 312 313 314 316 316 315 315 313 311 311 314 315 313 315 316 315 317 317 315 315 316 316 314 314 314 314 313 313 313 313 314 314 315 315 314 313 313 314 315 313 313 317 318 315 313 313 313 312 313 313 313 313 313 313 313 313 312 311 312 311 312
319 319 318 318 318 317 317 316 315 314 311 312 312 310 309 307 307 308 309 315 318 314 313 314 312 313 313 313 313 313 314 315 315 316 314 310 311 313 314 313 314 316 316 315 315 316 318 318 315 312 313 314 314 313 314 314 313 314 315 315 315 314 314 314 316 319 315 314 320 320 315 312 313 313 313 312 312 312 313 312 313 313 313 313 312 313 312 312
318 318 318 317 317 317 318 316 315 314 312 312 312 310 310 308 306 308 312 315 316 316 314 312 310 312 314 313 312 313 314 314 314 315 312 311 312 312 313 313 314 315 315 314 314 315 316 319 318 314 312 313 314 314 315 315 314 315 315 315 314 314 315 314 315 319 316 315 318 317 314 314 314 314 313 313 313 312 312 312 312 312 313 313 313 313 313 313
318 318 317 317 317 318 318 316 315 314 313 313 312 311 311 309 306 307 311 314 316 317 313 309 310 311 312 311 312 313 312 313 315 314 311 311 312 313 313 312 313 314 314 313 314 314 313 316 318 316 315 315 314 314 316 317 315 314 316 316 315 315 315 315 316 316 316 319 319 317 317 317 318 318 315 314 315 314 314 313 313 313 313 313 313 313 314 313
318 318 317 317 318 318 318 317 316 314 314 313 311 311 310 309 308 307 309 313 317 318 314 310 311 312 310 311 312 313 313 313 312 311 310 311 311 313 313 312 313 313 314 313 313 313 313 313 315 318 319 318 317 316 316 317 315 315 321 321 316 315 316 316 317 316 319 323 319 317 319 319 319 321 320 318 318 316 316 315 314 313 313 313 313 313 313 313
319 318 318 318 319 319 319 319 317 316 315 313 311 310 309 309 308 307 309 315 317 317 315 313 311 311 311 311 311 312 315 314 311 310 310 310 310 312 313 313 312 312 313 315 315 315 314 313 315 317 318 320 319 317 316 316 315 317 324 327 322 320 320 318 318 319 321 322 319 319 321 320 319 320 322 322 321 318 318 318 316 313 313 313 313 312 312 313
321 320 319 318 319 319 319 319 317 316 316 314 311 310 310 309 307 309 312 317 320 317 316 314 311 311 312 310 311 312 312 312 312 311 307 308 310 312 313 313 313 313 314 315 315 317 316 315 318 317 316 319 317 316 318 317 316 319 322 324 324 323 322 320 319 322 321 320 319 320 321 321 319 318 320 319 318 319 318 318 317 315 314 313 313 313 313 313
323 322 320 319 319 319 319 318 317 317 317 314 311 310 309 307 306 311 316 318 317 314 314 313 310 311 313 311 312 313 311 310 312 311 308 309 310 310 312 312 312 313 314 315 314 315 316 316 317 317 317 316 315 319 322 319 318 319 321 322 325 328 327 323 321 321 322 321 320 322 321 320 320 319 319 317 316 319 317 315 315 315 315 314 314 314 313 314
324 323 322 320 320 319 318 318 319 319 318 314 312 310 309 309 309 313 320 319 314 312 312 312 312 312 314 314 314 314 312 311 311 311 311 311 311 311 311 310 312 317 317 316 316 314 313 312 314 317 317 316 318 319 317 318 318 317 321 326 327 330 329 329 328 322 320 320 321 324 322 319 319 318 319 318 319 319 315 315 316 314 314 315 313 313 313 313
324 323 323 321 320 320 318 318 320 320 317 314 312 310 309 313 314 317 322 319 315 316 313 313 314 314 314 316 317 316 313 313 312 312 313 311 312 314 312 311 315 322 322 317 316 315 313 311 315 320 321 321 320 316 314 316 317 317 324 326 324 326 327 328 328 323 320 321 322 325 321 318 319 318 317 319 320 318 314 315 318 316 318 319 316 313 313 314
323 323 323 322 321 320 320 320 320 319 317 313 310 311 314 318 318 319 320 319 321 321 315 316 316 315 316 314 317 318 315 314 313 312 316 315 315 316 315 316 317 319 322 321 318 319 317 314 315 317 317 319 318 318 320 319 317 318 323 322 320 323 323 322 324 323 321 321 322 322 318 317 318 317 316 316 319 319 316 315 316 318 322 324 320 315 313 314
322 322 322 321 321 320 320 320 320 318 316 312 312 316 321 325 326 322 319 322 325 320 315 318 317 317 318 315 321 322 315 316 315 311 314 315 314 317 318 319 318 316 319 321 319 323 322 317 314 313 314 318 318 318 320 320 318 317 320 321 321 322 322 321 325 324 320 320 320 316 316 318 319 320 318 315 314 317 317 315 315 316 320 322 321 316 314 315
321 321 321 321 320 320 320 320 319 317 314 312 316 321 322 326 328 322 319 321 321 318 317 317 317 318 317 317 326 324 314 319 318 311 314 313 312 318 318 315 314 314 316 316 318 322 320 317 316 316 318 319 317 315 318 323 322 315 318 323 320 324 327 325 326 323 318 323 322 314 318 322 319 319 321 317 315 316 316 315 314 313 314 317 317 315 315 315
319 320 321 320 319 320 319 319 318 317 314 313 316 320 320 326 327 321 321 321 317 317 316 315 316 319 320 321 326 324 315 318 317 312 315 315 315 321 322 317 312 313 315 315 320 321 317 319 320 317 318 317 316 317 317 320 322 316 320 323 318 322 326 320 322 322 316 321 321 316 320 323 318 316 318 318 317 317 316 314 313 313 313 314 314 314 315 313
318 319 320 319 319 319 319 318 317 316 315 315 317 318 319 325 327 324 323 317 313 315 318 319 321 321 323 323 325 323 316 315 316 314 315 315 316 319 322 321 314 311 313 315 320 321 316 321 322 315 314 314 313 315 316 318 320 316 317 320 317 319 322 317 321 323 316 316 319 318 320 320 317 317 317 316 315 315 316 316 315 315 313 313 313 313 314 312
316 318 318 318 319 320 319 318 317 315 315 316 318 319 319 321 322 321 319 315 312 316 319 322 322 321 321 321 323 323 318 317 317 316 317 317 316 317 320 321 316 311 312 313 317 320 317 317 320 317 316 313 309 312 316 316 317 318 319 318 316 317 320 320 322 324 319 318 319 319 318 316 316 320 321 318 316 315 319 317 314 314 312 311 312 313 313 313
314 317 318 317 318 319 319 317 316 314 315 317 318 319 320 320 318 317 316 315 316 319 320 322 322 321 319 318 321 321 317 320 321 318 320 319 317 317 317 317 316 312 311 311 315 320 317 314 318 319 317 315 312 314 317 313 312 318 320 317 317 319 321 321 321 321 319 319 319 317 317 315 316 319 320 317 317 317 317 314 313 314 314 313 312 312 313 313
313 316 316 316 317 317 318 317 314 313 315 318 318 319 320 320 317 316 316 316 316 319 320 322 322 321 319 317 318 320 317 318 320 319 321 321 319 318 316 314 317 315 311 310 314 318 316 315 319 319 315 315 314 315 321 318 313 313 314 314 315 317 320 321 321 321 320 318 319 318 318 317 319 322 319 316 316 317 315 315 316 318 316 313 312 313 314 314
312 315 316 316 316 317 317 315 313 315 317 318 318 318 319 319 318 318 317 315 315 318 320 322 322 320 320 319 318 320 319 317 318 318 320 322 320 318 317 315 316 318 314 311 313 315 316 316 317 317 315 314 313 316 321 322 317 314 314 315 313 313 318 319 317 319 319 318 318 319 319 317 318 321 318 314 315 315 315 315 318 320 316 312 312 313 313 314
311 314 316 315 315 316 315 314 314 316 317 318 317 317 316 317 319 318 316 315 316 317 317 319 322 321 320 320 319 319 319 318 318 319 320 321 319 317 319 318 317 318 317 314 315 316 317 318 317 316 315 314 315 317 319 319 319 317 316 316 315 314 318 318 316 318 318 317 318 318 319 319 317 316 314 314 316 318 320 319 319 323 320 316 317 315 313 314
309 313 314 315 315 314 313 315 315 315 316 317 317 316 315 315 317 317 315 316 316 315 314 315 318 319 318 318 319 318 320 320 319 319 319 319 318 317 318 320 320 317 316 317 320 321 319 318 317 316 316 317 318 319 318 317 316 315 315 315 316 315 316 317 318 318 318 317 316 317 318 319 316 315 314 313 315 318 321 318 318 321 319 317 317 315 312 313
309 311 313 314 314 313 314 317 316 315 316 316 315 316 316 315 316 317 316 316 316 315 315 315 315 316 317 317 317 317 319 320 319 319 319 318 318 317 316 318 318 316 315 317 320 322 319 317 317 317 318 321 321 320 318 315 313 314 315 314 314 314 315 316 317 317 317 317 316 317 318 317 315 315 314 314 315 316 316 315 315 315 315 315 314 314 315 315
307 309 311 313 312 312 315 318 317 316 316 315 315 316 315 314 315 316 316 316 316 315 315 315 314 315 316 316 316 317 318 319 319 319 319 319 318 316 316 317 316 316 317 316 319 321 319 318 319 319 319 321 321 321 319 316 313 313 314 313 313 314 315 316 317 317 316 316 316 317 317 317 315 315 314 313 314 313 312 313 313 313 315 318 319 320 320 318
305 307 309 311 311 311 315 317 316 316 316 315 315 315 315 315 315 315 315 314 315 316 315 316 316 315 314 315 315 315 316 317 318 318 320 320 318 316 317 317 316 316 316 316 320 321 320 320 320 319 320 321 321 321 321 320 317 313 313 314 313 314 315 314 316 316 315 316 316 316 316 315 314 313 313 312 312 312 311 312 313 313 315 316 317 318 317 315
304 306 307 310 311 311 312 314 314 316 316 315 315 315 315 316 315 315 315 314 314 314 314 316 316 315 314 315 315 315 315 315 316 318 320 320 319 318 318 317 316 316 316 317 318 317 316 318 319 318 319 320 319 319 319 321 319 316 315 315 314 314 314 314 315 315 315 315 315 315 315 315 314 313 313 312 312 312 311 311 312 312 313 313 312 313 313 312
303 304 306 309 311 311 311 311 312 314 314 314 315 315 315 315 315 314 315 315 315 314 314 314 314 314 314 315 315 315 315 315 315 316 316 317 317 317 317 317 317 316 317 317 316 313 311 312 315 316 316 317 318 318 317 318 318 317 316 315 314 314 314 313 314 314 314 316 316 315 315 315 314 313 312 312 312 312 311 311 311 311 311 311 311 312 312 312
301 302 304 306 307 309 311 310 309 310 310 310 311 313 314 314 314 314 314 314 313 314 314 314 313 314 314 314 315 315 315 316 316 315 315 314 313 314 315 315 315 315 315 315 315 313 311 311 313 314 314 314 314 315 316 316 316 316 316 316 315 315 315 313 313 312 313 315 315 314 315 315 314 312 312 312 311 311 311 311 311 311 311 311 311 311 312 313
299 300 301 302 302 304 306 304 304 306 307 307 308 311 312 312 312 312 312 312 312 312 314 314 313 312 310 309 310 312 313 313 312 311 310 308 307 310 312 313 314 313 312 313 314 314 313 313 314 313 313 313 313 313 313 314 314 315 315 315 315 315 315 315 314 312 312 313 312 312 313 313 312 311 311 311 311 311 311 310 310 310 310 310 310 310 311 311
299 299 300 300 300 300 301 301 301 303 304 306 307 309 309 310 310 309 308 309 310 311 312 312 308 306 305 305 306 308 308 306 304 304 305 304 304 306 308 310 311 310 309 311 313 311 312 314 314 315 315 314 314 313 313 313 313 314 314 314 314 314 315 315 315 314 314 313 312 312 313 312 311 310 310 310 310 310 310 310 310 310 310 310 310 309 309 308
297 298 298 299 299 299 300 301 301 302 303 305 306 307 308 308 307 305 304 306 307 307 308 306 303 303 303 303 304 306 304 301 301 302 303 303 303 304 304 305 307 307 307 309 311 310 310 312 313 314 315 315 315 315 314 313 313 313 313 313 313 314 315 315 315 314 315 315 314 314 314 313 311 310 310 310 310 310 309 310 309 309 309 308 306 304 304 303
296 297 297 297 297 298 298 299 300 300 301 302 302 303 304 303 302 302 303 305 306 305 303 301 301 302 302 302 304 303 300 299 300 300 301 302 302 303 303 304 305 306 307 308 309 309 310 311 312 313 314 314 314 314 314 314 313 314 313 312 312 313 314 314 314 314 313 314 314 315 314 313 312 312 311 311 310 310 310 309 308 307 305 303 301 301 301 300
Wind_Speed
11 11 12 12 12 12 12 12 12 12 12 12 11 11 11 11 11 12 12 13 13 12 12 12 12 11 10 9 8 9 10 10 11 9 9 12 11 9 7 5 4 6 7 6 7 8 6 4 5 4 1 0 0 1 1 1 2 3 3 2 3 3 4 5 6 5 3 3 5 4 3 7 5 4 1 1 1 2 3 4 4 3 2 2 0 4 16 30
12 12 12 13 13 13 13 13 13 13 13 12 12 12 11 11 11 11 11 12 12 13 13 13 13 12 10 9 8 9 10 10 10 10 13 14 13 12 9 6 6 7 8 8 9 10 7 4 5 4 3 0 1 1 0 1 2 2 3 2 4 6 5 5 5 4 2 4 5 5 4 6 7 4 1 2 5 3 4 6 4 5 4 3 5 13 24 31
12 13 13 13 13 14 14 13 14 13 13 13 12 12 12 11 11 11 11 11 12 12 13 14 14 13 11 9 8 8 9 8 6 8 8 7 7 12 11 9 8 8 8 8 8 10 8 5 7 6 3 1 2 0 1 1 2 2 3 2 7 7 6 6 6 6 6 4 4 6 2 4 7 3 2 4 6 5 7 8 4 8 10 4 5 13 23 27
13 13 13 14 14 14 14 14 14 14 14 13 13 13 12 12 11 11 11 11 12 12 12 14 14 13 10 8 6 7 7 4 3 4 4 7 3 5 11 12 10 10 9 8 8 9 6 5 6 5 3 1 3 1 2 3 3 2 4 5 7 5 4 8 8 7 7 4 4 4 1 3 6 3 3 4 4 8 9 9 10 12 13 9 7 11 19 22
13 13 14 14 14 15 15 15 15 15 15 14 14 13 13 13 12 11 11 11 11 12 12 13 14 12 9 7 5 6 6 4 2 2 3 7 6 1 8 12 11 11 10 9 9 8 6 4 4 3 2 2 1 2 3 6 4 2 5 8 7 4 4 9 6 6 6 3 3 4 3 5 3 2 5 7 7 11 7 8 12 13 11 11 12 13 16 16
14 14 14 14 15 15 15 15 15 15 15 15 15 14 13 13 13 12 11 11 11 11 11 12 13 12 8 5 3 3 2 1 4 3 5 7 5 2 7 11 12 11 10 11 9 6 5 3 4 2 2 2 3 4 5 4 4 3 6 6 7 6 6 8 4 4 4 3 6 5 4 2 1 5 6 9 15 15 7 7 11 12 12 14 15 14 14 15
14 15 15 15 15 15 15 15 15 15 16 16 16 15 15 14 14 13 12 11 11 11 11 11 12 10 6 3 2 2 3 5 10 8 10 8 4 4 7 11 12 11 11 11 8 5 4 4 3 4 3 2 4 6 5 2 4 6 6 5 7 8 9 10 6 6 4 7 9 2 2 2 6 7 2 8 18 16 8 5 8 9 9 13 13 14 16 17
14 15 15 15 15 15 15 15 15 15 16 16 16 16 15 15 15 14 13 12 11 11 10 10 10 8 5 2 0 3 1 8 12 10 9 6 5 6 8 11 12 12 12 13 11 7 4 5 5 3 2 4 4 4 4 1 2 6 8 6 5 5 8 9 7 8 7 8 6 1 5 8 9 4 5 17 21 11 8 8 7 4 6 11 13 15 16 15
14 14 14 14 14 15 15 15 15 15 16 16 16 15 15 15 15 15 15 13 12 11 10 8 9 7 4 1 4 2 4 6 8 8 7 6 7 8 9 11 13 14 11 12 12 9 6 5 6 5 4 4 4 4 3 2 4 7 8 5 5 6 8 7 7 9 7 5 3 3 11 11 7 2 9 23 20 9 9 9 9 6 6 10 12 14 15 16
13 13 13 13 13 14 14 15 15 16 16 16 16 15 15 14 14 15 15 15 13 12 11 8 7 5 3 2 3 2 7 5 6 7 6 7 9 10 12 13 14 15 12 9 11 11 7 7 6 4 4 2 3 4 2 4 4 5 5 6 7 8 9 5 7 10 5 4 6 7 14 11 3 1 10 19 9 3 8 9 9 9 10 11 11 12 14 15
13 13 14 14 14 15 15 15 16 17 17 17 16 15 15 14 14 14 14 15 13 13 12 9 7 4 4 4 4 5 7 6 7 7 7 8 11 11 12 14 15 16 14 8 10 14 11 9 5 5 2 2 2 3 3 5 2 2 2 7 9 6 9 8 8 10 3 4 7 10 11 10 2 3 14 20 4 5 6 8 8 8 11 11 11 12 10 13
12 13 14 15 15 16 16 17 17 18 18 18 17 15 14 14 14 14 15 15 14 13 12 10 7 5 4 2 6 12 12 11 11 10 10 10 11 11 11 14 15 16 16 10 9 13 12 9 6 5 4 1 1 2 3 4 0 2 2 6 11 7 11 14 9 7 4 3 5 9 4 9 5 10 19 21 7 1 4 8 9 9 10 10 10 10 9 13
12 13 14 15 15 16 18 19 19 19 19 19 18 17 15 15 14 14 15 15 15 13 12 9 7 6 3 2 8 14 18 18 15 14 14 12 11 11 12 15 15 15 15 12 9 6 7 9 8 6 4 2 2 2 1 1 2 4 2 2 9 7 11 13 3 2 4 4 6 8 2 8 10 16 19 15 8 5 8 11 11 9 9 9 9 9 10 12
12 13 14 15 15 17 19 20 20 20 20 20 19 17 16 15 15 15 15 16 15 12 11 8 6 6 4 5 8 9 14 16 15 17 16 15 13 12 13 15 15 15 14 12 9 5 3 6 6 3 1 3 3 4 3 5 3 4 2 1 3 2 9 10 2 4 2 4 7 8 3 8 14 18 15 8 6 6 9 13 12 10 9 9 8 8 10 11
12 13 13 14 15 18 20 21 21 21 21 21 20 18 17 15 15 16 16 17 14 10 8 5 7 7 1 7 9 8 11 12 16 22 20 17 15 11 12 15 15 13 12 10 8 5 4 4 4 2 2 2 1 3 4 4 3 2 2 4 3 4 8 12 4 6 7 4 4 6 3 8 14 19 14 5 5 8 9 13 12 11 10 9 9 8 10 11
11 12 13 13 15 18 20 22 22 22 22 23 22 20 17 14 15 16 16 15 11 8 5 5 9 7 0 5 4 5 9 11 15 19 18 18 17 11 9 12 11 9 8 7 5 4 5 4 2 2 1 3 1 2 3 4 5 2 3 6 5 5 4 8 8 6 9 4 2 6 5 6 10 14 12 5 5 8 8 12 12 12 12 10 9 8 9 10
11 12 12 13 15 17 20 22 23 23 23 23 22 20 17 15 15 14 12 8 3 6 6 5 7 5 2 3 2 5 9 14 15 13 17 19 17 13 9 7 6 7 6 3 5 4 2 2 1 1 1 2 2 5 3 3 6 3 2 5 6 7 4 4 8 5 4 5 5 8 8 10 13 12 11 8 5 7 7 11 12 11 11 10 9 8 9 10
10 11 12 14 15 18 19 22 24 24 23 22 21 21 17 11 8 6 2 7 8 7 4 1 4 3 4 5 5 5 5 10 12 11 16 18 16 14 10 5 5 7 6 2 2 3 0 1 2 1 2 3 3 5 4 7 8 6 5 5 4 6 6 7 9 4 1 4 7 7 9 14 17 15 14 14 10 6 9 11 10 10 11 11 9 9 10 10
10 11 12 14 16 18 19 22 25 22 21 23 20 15 9 3 3 4 7 9 7 5 2 3 5 3 4 6 6 4 3 6 8 10 16 16 14 13 9 4 5 7 5 1 1 2 3 2 4 2 4 8 7 8 11 13 12 10 7 5 6 7 7 9 12 8 3 6 8 9 13 15 16 17 16 17 15 12 12 11 9 10 11 11 10 10 11 12
11 11 12 14 15 17 18 22 23 18 21 25 20 10 2 4 3 2 3 1 4 4 2 5 9 4 4 4 2 4 5 6 7 8 15 17 12 10 5 2 6 3 3 5 4 2 4 4 3 6 10 12 10 11 16 16 11 8 5 6 9 9 9 11 14 11 5 5 9 12 16 17 16 18 17 15 14 13 14 14 13 12 12 12 13 15 14 14
11 12 12 13 15 17 18 21 19 16 20 22 17 8 2 2 1 2 4 5 11 12 8 8 12 10 9 5 5 7 4 4 7 5 12 16 13 10 4 3 5 2 4 6 3 0 3 5 8 13 15 13 10 11 13 11 8 7 6 8 9 8 12 13 13 13 5 5 9 11 15 18 16 16 16 12 12 15 16 16 17 16 14 12 14 18 17 15
12 12 12 13 14 16 17 19 16 14 18 17 13 7 3 2 1 1 1 4 10 11 10 11 11 11 14 16 15 9 2 5 7 4 11 13 9 7 4 5 6 4 5 4 2 1 3 5 13 17 13 9 7 6 7 9 9 8 6 7 8 7 11 12 11 13 5 4 8 11 13 16 14 14 15 13 13 15 17 16 18 17 13 13 15 17 17 16
12 12 12 12 13 14 16 18 13 13 17 12 11 7 3 5 2 1 2 2 8 7 7 9 9 8 13 20 19 12 7 9 8 6 14 15 5 4 5 6 6 3 5 8 8 6 5 8 16 16 9 7 9 6 6 7 6 7 6 6 8 7 8 9 7 8 5 3 6 9 11 12 10 10 12 15 16 15 16 17 17 14 12 16 17 16 15 17
12 12 11 10 11 13 15 17 10 12 15 7 8 7 7 7 2 2 1 2 5 6 7 10 8 6 11 12 11 13 9 7 6 5 15 17 5 2 4 6 5 3 7 13 13 12 10 10 10 11 10 10 11 9 7 6 7 9 9 8 11 11 12 12 6 6 5 5 5 7 12 10 9 12 13 14 15 14 15 16 15 15 15 16 16 16 17 19
12 11 9 8 9 12 15 14 8 13 11 3 5 9 9 8 2 2 1 2 4 6 6 6 5 6 11 6 7 11 4 5 6 5 15 18 9 4 3 4 4 7 12 12 11 10 12 8 5 8 9 10 11 9 8 8 9 8 8 13 18 16 14 14 10 8 6 6 4 1 9 9 7 12 13 10 10 11 11 12 15 16 15 14 15 17 18 19
13 12 9 7 8 12 13 7 7 13 7 2 4 9 8 7 3 2 0 2 4 5 2 2 3 3 6 3 6 7 2 5 5 4 13 17 12 6 2 3 2 7 9 6 5 5 7 7 7 9 9 10 9 8 9 11 9 9 6 14 18 14 11 12 9 5 3 6 4 3 2 9 5 7 9 10 10 12 9 10 14 14 13 14 14 16 17 16
12 10 8 6 7 10 7 3 9 11 2 1 7 8 7 6 3 2 0 4 5 3 2 1 0 1 1 2 4 7 3 5 2 3 4 6 6 2 2 5 3 3 4 3 3 4 5 6 8 10 9 7 7 9 10 12 8 8 4 9 11 9 9 8 6 5 4 4 4 2 4 8 12 5 10 12 10 10 10 12 15 13 13 14 14 15 17 16
13 9 7 7 8 10 8 7 10 7 2 3 7 6 6 4 2 0 2 3 5 1 2 2 0 1 2 1 2 4 2 3 3 1 3 3 1 1 4 8 5 4 3 4 6 5 5 6 9 10 7 6 9 10 9 12 8 6 3 6 6 6 6 4 4 5 2 4 4 4 6 4 13 5 8 10 9 8 11 15 17 15 14 14 15 17 17 15
16 12 9 9 9 11 11 11 10 6 5 5 5 6 4 1 1 4 3 3 4 1 0 1 0 2 2 1 3 0 2 3 2 3 4 3 1 3 3 6 4 4 4 4 9 6 2 4 7 9 7 8 9 6 7 13 9 3 6 5 4 3 2 4 2 1 2 5 6 6 6 4 11 4 5 3 5 8 12 14 15 14 12 12 14 17 16 11
21 17 14 12 12 12 10 13 15 10 7 5 4 6 3 1 2 4 3 5 1 1 1 1 0 1 3 3 2 3 1 2 1 2 3 2 3 5 1 2 3 2 5 4 8 8 2 0 2 5 5 6 5 2 3 8 6 2 6 5 6 4 5 4 1 4 1 9 6 10 12 8 8 4 4 4 5 8 9 8 10 11 12 13 13 15 14 12
23 22 20 17 17 14 8 8 12 9 7 4 4 5 2 1 4 3 7 3 1 3 1 0 1 2 4 4 2 3 2 2 1 2 1 1 3 4 1 1 2 2 3 5 7 7 3 1 2 3 2 4 5 3 1 1 3 4 4 4 3 4 4 4 4 4 2 9 6 11 13 11 10 6 3 5 5 5 7 9 10 12 13 13 12 12 13 13
23 23 23 23 22 19 12 8 6 5 7 3 2 2 1 1 1 6 6 3 2 3 2 1 1 2 2 3 2 3 2 2 1 4 3 3 2 2 3 4 3 1 4 5 4 5 4 6 5 1 1 5 5 2 3 5 3 4 4 4 1 4 3 2 3 0 4 8 6 8 7 7 11 7 5 10 10 7 9 10 11 12 12 12 12 13 12 11
22 22 22 24 25 23 22 17 10 6 6 5 3 3 4 2 5 5 3 1 2 2 2 2 1 3 4 2 3 3 2 3 3 3 2 3 3 3 5 5 6 3 4 3 2 4 5 5 3 3 3 4 8 6 3 2 3 6 5 6 5 3 3 4 4 3 5 8 5 4 5 5 7 4 10 15 14 12 10 10 12 12 11 11 12 12 9 9
16 18 21 23 24 25 25 23 17 11 7 8 5 3 3 5 6 1 4 6 4 2 3 2 2 2 3 2 5 4 2 4 4 5 2 3 2 3 5 6 6 4 2 1 2 1 3 8 3 6 3 5 10 11 8 4 4 6 5 5 5 6 4 4 4 6 7 6 4 1 4 5 2 2 9 11 9 9 8 9 10 9 10 10 10 11 10 11
10 12 16 19 21 24 25 22 19 15 10 8 4 3 4 7 5 0 3 4 2 3 3 1 3 2 2 3 4 2 3 5 1 5 3 3 4 4 3 5 8 6 3 3 3 3 4 8 6 3 1 7 9 6 4 5 0 3 4 4 4 6 5 4 6 6 4 3 4 3 4 5 3 5 7 7 7 8 7 7 7 9 12 11 11 12 13 13
8 8 11 15 19 22 24 24 21 18 12 7 3 4 6 6 3 3 3 2 1 1 4 4 3 2 3 2 3 4 2 2 1 1 2 2 2 4 4 4 8 11 8 5 3 3 4 6 4 1 1 3 4 2 1 4 3 1 3 3 4 4 6 4 6 3 1 4 6 3 5 6 5 7 7 4 6 7 7 8 9 12 13 11 12 13 13 12
6 6 7 11 17 20 22 24 23 18 10 5 4 6 5 4 3 4 3 0 2 3 3 2 1 1 1 2 2 3 2 1 0 0 1 2 2 4 5 4 5 12 14 8 4 4 4 5 3 2 1 2 1 1 2 0 4 5 3 5 1 2 2 3 2 2 2 8 6 4 10 8 4 7 6 4 5 7 9 10 10 10 10 10 12 13 12 12
7 5 7 11 18 19 20 25 24 15 6 3 7 8 4 3 3 3 1 1 2 2 3 2 2 2 1 3 3 2 2 2 1 1 1 2 3 3 2 4 3 9 13 8 2 3 2 4 4 1 2 3 2 0 3 3 2 4 3 3 3 1 3 2 3 3 6 9 6 8 15 10 5 7 7 5 7 9 10 9 8 9 10 11 12 14 13 10
6 3 5 9 15 18 21 26 22 10 3 4 8 8 4 4 4 3 1 0 2 1 1 5 4 2 2 3 3 2 3 3 1 1 0 1 3 1 1 2 3 5 8 5 2 3 1 3 5 1 2 2 3 1 4 2 1 0 0 0 2 3 4 3 3 3 5 9 7 9 12 9 6 6 6 9 9 8 10 9 8 11 12 11 11 12 12 9
3 2 3 3 9 17 24 24 14 5 4 5 6 7 4 3 4 4 5 5 4 2 3 6 5 4 4 4 5 4 3 4 4 2 2 4 6 7 4 4 4 5 4 7 5 3 1 4 8 3 1 1 2 5 7 7 5 3 3 3 3 3 1 1 2 1 3 7 7 8 9 9 8 4 7 12 10 9 11 10 10 10 9 10 10 10 11 9
2 3 3 3 9 21 24 14 5 4 4 4 6 7 5 3 3 4 6 7 6 4 3 4 6 6 6 6 7 5 3 4 6 6 5 6 8 8 6 6 6 3 1 3 4 2 1 3 7 5 2 5 10 8 9 11 10 7 7 8 8 7 4 4 6 5 5 7 7 9 8 8 10 8 9 12 9 8 9 8 8 8 8 9 9 9 10 8
3 4 3 6 16 25 18 4 3 4 3 4 4 4 4 4 4 4 5 5 6 4 2 3 6 6 6 7 8 7 5 5 8 8 6 9 13 11 7 5 5 2 3 4 4 4 3 2 5 8 7 9 11 7 5 9 8 5 5 6 7 8 7 8 11 8 7 7 7 8 9 7 11 17 17 13 9 7 7 8 7 8 8 8 8 9 9 8
3 4 2 8 22 25 10 3 5 4 4 3 3 3 3 3 4 4 4 4 5 4 3 3 6 7 8 8 8 8 7 7 10 11 10 10 13 14 14 13 9 4 3 4 3 4 3 3 7 9 6 6 8 8 6 4 3 3 5 7 8 9 10 11 9 5 5 7 6 7 10 7 10 18 19 14 9 8 8 8 8 8 6 6 8 9 8 8
2 3 1 10 26 22 6 4 7 6 6 5 5 6 4 2 4 7 7 5 4 4 5 5 6 8 8 7 8 10 9 7 9 13 12 9 9 13 17 18 16 10 6 5 4 5 4 5 7 8 7 7 5 6 8 6 5 5 7 8 9 10 11 8 3 2 5 8 10 10 10 8 9 14 16 15 13 11 10 7 7 7 6 6 7 7 8 8
2 3 2 7 19 15 4 4 7 6 6 7 9 9 6 4 6 9 10 7 5 5 5 4 4 6 7 8 9 11 11 10 8 8 9 7 6 9 14 17 18 13 11 11 8 5 5 6 7 8 9 10 9 8 7 5 5 4 4 9 11 12 13 10 6 6 9 11 13 12 10 10 12 14 17 20 21 19 15 9 6 6 7 7 7 8 9 10
1 3 2 3 7 7 4 3 4 5 7 8 8 9 11 11 6 5 7 7 7 7 5 4 3 4 6 8 10 12 12 13 11 6 6 7 5 5 8 13 15 14 17 18 10 4 1 6 9 12 13 13 13 12 6 3 4 4 4 10 13 13 14 12 8 10 11 12 13 13 13 14 14 15 19 23 23 22 21 15 9 8 9 10 10 10 10 11
2 3 2 1 3 5 6 4 4 5 5 5 5 5 11 13 8 4 6 5 6 8 6 5 7 9 9 10 12 12 12 14 14 13 13 13 10 8 7 7 9 13 17 15 8 4 1 5 11 16 19 18 18 20 18 13 13 12 11 12 14 13 13 12 13 15 13 12 12 12 14 17 16 16 20 23 23 23 22 18 14 12 13 12 10 9 10 11
3 1 2 2 2 3 5 4 3 3 3 2 3 3 7 10 8 5 4 3 3 4 4 5 11 16 15 14 12 10 11 13 14 14 12 10 9 10 9 7 7 9 10 7 5 5 3 7 11 15 18 20 20 23 23 20 18 18 17 18 20 19 17 15 17 17 14 13 15 14 16 19 16 14 17 21 22 22 20 18 18 17 17 15 12 10 9 9
1 1 3 3 2 3 3 2 3 3 4 3 2 3 4 6 6 4 2 2 3 3 6 6 6 7 7 6 4 5 6 6 6 5 4 6 8 6 6 7 5 3 3 4 4 4 4 7 11 15 18 19 19 21 22 21 21 19 20 23 25 25 24 22 21 19 18 19 19 18 21 21 15 14 18 20 20 18 17 19 21 21 21 20 17 13 11 10
1 1 2 3 2 3 3 2 2 4 3 3 4 4 4 4 3 2 0 2 3 3 4 4 5 7 8 6 3 4 3 3 2 4 5 9 9 5 3 5 5 7 6 4 3 2 4 7 11 13 13 13 16 18 19 20 21 22 24 25 25 25 25 25 23 20 19 21 22 23 23 20 17 19 22 21 20 19 19 22 23 23 25 23 16 12 11 11
3 2 1 2 3 3 2 1 1 2 3 4 4 3 3 4 3 3 3 4 3 1 1 4 8 7 6 8 7 5 4 4 4 6 5 5 7 6 4 5 6 10 8 5 3 3 3 4 6 7 8 9 12 16 19 21 22 24 25 24 23 23 22 22 21 20 20 22 23 22 18 15 17 20 22 22 21 20 21 23 23 20 18 15 12 12 12 13
2 3 1 0 3 4 3 2 1 2 4 3 1 2 3 5 4 4 3 3 3 4 4 5 7 6 5 8 8 5 5 6 9 9 7 8 9 9 8 9 9 9 6 5 3 2 3 4 3 5 7 8 11 16 18 17 16 15 17 21 25 25 24 22 20 21 22 20 18 17 17 17 18 18 17 17 17 17 18 16 12 10 10 11 12 12 12 12
Wind_Direction
9 6 2 3 2 2 1 0 1 1 3 3 4 5 3 3 358 357 355 353 355 355 355 349 346 341 333 326 318 316 316 305 294 275 251 266 266 242 241 245 221 201 198 191 176 165 148 164 192 174 140 51 48 236 211 159 101 63 101 160 247 204 211 197 197 207 174 271 265 264 223 187 251 278 244 326 320 277 263 268 265 281 24 42 290 144 150 158
2 360 357 357 355 355 355 354 355 355 356 356 358 358 358 358 353 353 350 349 349 349 351 346 344 339 334 330 318 320 316 306 297 276 271 282 269 242 234 228 217 206 195 191 191 175 150 178 194 135 88 98 275 312 184 246 130 132 136 175 234 205 218 205 203 227 197 257 251 260 245 187 224 239 117 244 264 275 243 264 278 267 282 37 95 136 149 157
357 355 353 352 351 351 350 349 350 349 350 350 351 351 351 352 349 348 345 344 344 345 346 344 342 338 336 328 323 327 315 312 305 281 298 325 268 239 232 224 218 214 210 210 207 188 163 168 174 139 94 252 254 100 100 265 191 182 147 207 244 215 236 248 235 242 229 226 235 267 251 185 234 221 137 222 259 259 221 237 220 238 243 198 137 146 154 160
354 352 350 349 349 348 346 347 345 344 344 343 345 345 345 345 346 344 341 340 338 340 341 341 340 338 337 329 333 329 324 347 303 274 360 24 29 225 224 222 217 216 217 217 205 192 178 155 157 143 115 240 288 64 162 227 207 183 160 206 238 198 238 256 238 237 230 207 204 236 264 265 252 194 189 186 261 267 229 226 209 221 228 188 169 171 166 167
353 349 349 348 347 346 344 344 343 341 339 338 339 339 340 340 341 341 340 337 332 334 337 339 337 338 336 328 341 331 351 32 279 250 21 11 18 228 216 216 216 214 209 207 199 186 191 159 121 98 103 219 276 73 223 225 161 171 217 221 236 186 237 259 239 234 222 199 226 242 264 266 241 179 213 183 227 253 221 215 212 220 221 181 177 180 174 177
350 347 348 347 346 344 343 343 341 340 336 335 335 335 337 336 337 338 338 336 331 329 331 335 334 336 328 319 341 340 23 336 268 260 299 327 337 260 211 213 213 211 206 204 201 186 187 135 106 138 148 215 203 193 240 231 153 222 253 237 241 217 236 263 258 248 220 217 251 249 246 242 300 270 233 195 229 244 217 190 201 220 217 180 171 171 177 187
346 345 346 345 345 343 342 343 340 339 336 334 333 333 334 333 332 331 333 334 329 326 328 331 331 334 324 313 334 23 87 251 275 282 287 301 291 246 212 213 210 210 206 201 198 184 164 122 158 178 143 252 218 209 240 239 170 218 257 258 249 225 230 254 263 273 260 239 245 255 301 243 244 268 287 230 239 242 239 214 202 221 202 166 162 175 187 192
343 344 345 345 344 342 342 341 340 338 334 333 332 332 332 330 328 324 325 326 325 323 323 326 327 330 318 287 84 1 3 253 274 287 286 278 250 233 212 211 209 210 205 206 205 187 165 153 191 174 148 252 205 204 251 306 189 214 239 255 258 236 239 256 265 267 263 249 242 275 275 247 233 267 313 263 257 248 232 232 223 201 151 161 177 187 193 197
345 345 346 346 344 343 342 341 340 336 333 331 329 329 329 326 323 320 318 317 318 314 314 321 318 317 293 238 88 345 271 252 272 283 278 254 235 225 213 211 210 210 206 215 211 189 180 186 213 196 194 233 193 216 243 233 240 219 224 251 267 272 275 279 277 264 255 244 188 217 263 259 244 279 283 265 264 249 216 223 223 191 175 188 192 193 195 202
351 352 351 349 347 345 343 342 339 335 332 329 326 326 324 321 317 313 311 309 309 305 305 308 303 298 252 198 98 272 268 274 279 274 267 245 231 219 213 214 212 211 208 213 205 190 187 196 204 169 174 214 199 226 200 186 227 215 222 266 258 272 285 259 260 267 263 246 189 207 262 272 269 202 265 268 269 191 204 226 226 205 217 213 202 204 201 205
355 355 354 353 351 347 345 343 339 335 331 328 326 326 323 318 312 307 303 299 298 296 295 294 290 266 217 174 165 241 268 280 276 273 266 247 233 225 221 220 216 214 211 209 210 207 210 209 171 118 185 221 206 255 236 204 226 242 271 301 278 293 295 256 250 266 260 262 202 187 259 286 320 180 246 260 268 111 196 235 239 217 231 226 213 214 204 213
353 354 354 354 351 347 345 342 339 334 329 327 325 324 324 318 313 306 298 292 287 283 281 284 278 237 203 173 216 242 260 268 269 271 264 247 234 231 229 225 223 223 218 216 224 221 224 223 165 152 227 203 237 286 241 215 144 284 29 317 292 331 305 272 262 250 193 231 181 145 275 290 241 222 241 254 263 354 258 256 251 234 238 235 224 220 212 222
352 354 354 352 350 347 344 341 339 333 327 324 321 321 320 316 313 307 300 291 282 275 270 270 260 218 189 249 243 247 257 260 262 261 253 241 232 229 222 223 227 229 227 226 231 231 228 219 185 187 215 165 250 259 196 12 11 298 28 299 291 338 299 274 256 202 193 203 163 131 271 275 254 245 246 256 266 273 274 266 255 244 246 241 231 227 226 227
350 351 350 350 349 347 346 344 339 332 327 321 317 316 314 311 308 302 298 291 283 275 265 256 229 190 174 253 263 260 255 253 249 247 243 233 223 223 221 220 223 224 230 235 239 251 236 204 176 176 227 177 247 295 340 357 356 301 309 257 289 303 273 281 95 125 226 223 161 138 212 255 267 266 255 251 239 224 250 263 261 251 247 246 239 230 236 233
344 345 346 346 347 347 348 346 340 333 327 319 315 312 309 307 301 297 293 289 286 269 253 221 185 158 131 270 267 262 249 241 244 245 242 232 218 216 222 219 221 225 229 235 237 242 212 173 146 158 264 262 321 328 330 340 346 345 260 270 281 208 262 295 295 175 216 255 147 146 212 250 263 270 268 250 210 202 226 254 262 262 254 250 246 234 240 244
341 342 342 343 345 347 349 348 342 334 327 319 316 312 308 304 295 290 286 287 283 247 207 174 180 159 66 273 262 256 235 228 244 246 238 231 222 218 216 209 210 206 205 214 205 193 172 144 133 158 202 288 187 114 34 347 319 330 212 246 260 233 266 305 298 226 206 214 181 202 222 253 259 267 277 275 216 200 222 251 257 263 263 253 249 239 240 249
340 340 340 342 341 344 348 348 343 335 328 323 320 315 309 303 290 287 284 283 273 192 162 151 171 161 266 260 268 264 231 227 239 237 225 221 219 216 199 180 178 164 148 150 160 152 141 133 151 105 28 290 161 108 62 283 269 283 225 237 251 243 244 282 294 288 189 177 219 230 226 242 252 261 275 275 221 181 212 249 253 257 262 258 253 248 244 245
335 336 338 338 337 341 346 347 343 338 332 328 326 319 312 305 290 291 188 136 101 112 141 122 134 152 261 241 243 251 219 222 226 217 213 206 206 210 194 160 137 131 110 66 127 131 51 19 100 83 321 264 165 131 184 231 236 235 223 235 257 246 237 253 270 280 162 221 228 235 240 245 255 262 269 270 255 229 234 243 250 257 261 262 259 253 249 245
325 329 333 333 335 339 342 345 344 342 339 334 335 327 316 360 66 88 118 131 109 110 183 218 167 161 250 238 236 243 215 198 197 201 197 187 192 198 187 146 112 117 113 91 253 180 146 57 67 123 232 237 209 179 206 226 230 228 225 232 252 255 248 248 258 251 217 257 243 234 249 248 253 258 257 263 264 260 257 254 254 256 260 262 260 255 251 249
316 320 326 329 332 336 340 345 344 345 347 344 345 343 357 49 43 52 51 197 220 226 239 209 199 218 275 260 209 214 216 190 195 203 187 181 174 167 175 99 82 98 140 158 204 218 147 138 156 193 217 228 216 200 216 231 239 248 254 256 255 259 266 257 265 265 198 229 247 231 248 253 251 255 252 255 264 265 263 262 258 251 253 257 256 258 254 248
309 312 319 324 326 333 339 344 344 347 349 351 359 14 94 57 339 291 324 287 262 262 271 241 220 241 262 251 199 191 196 208 224 214 185 183 159 148 191 135 122 198 185 161 184 168 130 167 206 216 218 224 220 212 224 238 249 256 251 261 265 256 265 261 265 274 216 195 256 242 251 258 251 255 258 252 256 261 258 256 258 254 249 253 253 257 256 254
303 304 313 318 322 330 338 343 345 344 347 360 27 57 109 35 352 243 297 287 282 264 254 252 240 252 258 254 244 214 204 243 242 226 184 179 160 173 200 153 173 200 157 156 230 211 164 208 224 224 223 233 241 219 220 235 236 242 242 260 268 256 273 270 254 268 248 175 260 258 255 260 255 256 260 257 248 251 254 251 255 255 250 253 251 252 256 257
291 296 305 308 318 327 335 341 340 343 351 12 47 62 54 3 13 134 138 251 292 268 234 240 232 234 243 253 248 217 222 235 234 231 183 168 170 196 167 165 186 160 147 186 209 207 208 230 228 224 220 229 247 236 217 245 240 223 224 246 260 250 265 268 244 265 264 193 260 273 267 264 262 262 258 257 252 250 257 255 256 257 248 249 250 253 257 256
280 287 294 298 316 325 333 336 333 347 355 28 60 37 19 8 38 148 190 239 283 272 242 225 214 215 228 244 227 200 220 225 219 232 176 163 155 151 170 173 157 163 199 205 210 220 232 233 217 209 207 209 232 240 222 251 257 223 209 225 250 247 243 252 270 309 299 267 270 280 283 271 237 245 251 252 254 251 255 256 258 257 248 249 255 256 255 253
286 286 286 297 316 325 332 331 327 348 354 85 61 10 5 1 11 159 268 308 285 283 274 229 203 232 233 222 171 179 212 230 223 203 167 171 167 142 202 178 154 215 217 209 216 235 244 232 162 174 201 202 217 235 214 218 252 251 209 215 237 244 246 256 281 318 312 289 289 259 290 284 200 213 240 248 250 248 249 251 253 254 252 251 255 256 253 251
286 280 277 294 309 319 331 326 320 342 351 144 15 358 353 348 338 206 182 1 285 267 294 225 180 220 227 181 152 145 93 263 246 163 165 184 183 153 186 183 202 234 207 197 220 240 246 217 166 180 197 195 204 235 220 200 237 273 222 211 230 241 249 255 267 291 262 262 283 120 263 285 248 193 221 235 239 245 251 254 251 251 253 248 246 254 256 253
281 272 266 279 291 302 317 306 313 331 345 285 349 356 348 342 323 247 338 356 289 226 146 236 306 92 169 181 167 136 166 265 346 87 154 183 197 159 195 204 218 241 172 140 266 238 207 196 193 199 192 184 198 235 222 183 206 266 214 190 212 225 237 232 225 233 235 278 292 156 151 274 280 231 200 215 224 242 253 254 254 248 247 249 247 250 253 254
281 280 265 258 268 275 275 285 301 306 260 315 345 350 349 344 294 157 67 310 278 170 135 252 291 28 8 319 225 138 188 281 64 322 341 64 178 132 222 224 200 218 171 148 241 243 166 186 201 190 182 193 208 225 194 159 196 252 144 155 174 193 217 180 180 222 280 341 285 200 139 259 280 247 181 208 214 230 242 240 246 245 242 249 251 252 252 254
272 275 265 254 257 261 261 267 270 266 275 312 346 339 345 331 292 73 83 255 274 62 120 281 192 308 4 109 241 122 25 2 91 281 341 64 62 77 206 229 172 229 255 191 236 259 164 200 192 166 175 212 218 224 168 163 207 228 110 97 73 81 71 88 138 149 26 305 257 196 161 231 280 272 142 180 203 222 234 233 243 248 249 252 253 260 261 259
263 263 259 247 243 245 243 251 257 261 275 292 331 326 308 241 61 70 235 243 297 286 216 64 187 313 71 123 268 306 303 317 20 340 9 77 357 25 191 230 113 211 284 292 265 258 233 48 162 165 187 199 181 152 159 174 194 128 95 57 30 19 31 52 31 68 7 279 237 185 184 198 270 288 141 177 212 222 226 230 252 260 260 258 252 261 265 259
260 259 253 239 234 233 218 245 261 252 241 261 334 330 294 41 75 152 234 243 2 270 184 94 260 79 99 142 257 293 240 300 3 109 74 97 10 21 26 301 61 61 320 301 284 275 272 254 210 224 182 129 112 106 12 29 113 107 98 76 28 331 9 24 358 59 227 265 224 188 189 191 234 256 196 236 262 245 221 220 238 244 249 256 253 254 256 253
256 255 252 243 238 232 221 238 262 225 215 210 41 359 113 77 227 214 244 344 339 250 164 181 232 119 128 144 241 246 190 275 269 141 153 147 144 177 195 205 169 45 299 257 278 311 283 230 203 220 198 148 131 141 342 357 64 108 114 131 181 295 328 342 311 143 221 257 238 192 182 212 241 245 250 272 281 254 222 218 228 231 238 251 257 256 254 258
254 252 252 248 241 233 231 239 248 225 198 146 104 41 84 175 237 214 209 260 246 233 110 109 109 149 145 124 252 229 167 238 212 154 169 139 157 232 242 216 171 180 254 232 307 331 298 277 165 136 265 187 148 174 237 284 178 162 153 159 177 217 244 247 256 266 259 267 262 180 165 245 278 254 228 242 254 246 225 222 228 227 234 246 255 264 273 279
260 250 247 248 245 241 238 237 234 216 164 117 106 68 112 217 249 173 175 220 246 7 62 87 77 145 162 196 236 200 184 242 183 152 170 122 142 244 252 233 194 177 205 214 289 216 261 289 206 163 236 186 174 201 205 158 161 188 161 146 185 193 188 207 229 253 265 282 299 196 175 217 264 257 224 223 251 264 240 238 245 244 253 261 267 277 280 271
276 253 246 245 243 242 237 228 223 207 162 114 107 135 192 227 249 225 207 234 293 5 345 346 105 139 257 265 262 236 227 255 132 127 172 167 182 205 209 214 197 177 159 204 243 178 213 268 250 212 194 163 183 227 181 119 160 243 123 118 223 209 182 226 254 246 252 302 293 237 221 230 228 262 258 245 263 274 270 281 289 268 258 257 262 266 263 260
284 268 249 236 234 237 230 222 216 200 169 122 121 191 220 229 212 186 212 219 110 63 331 331 94 135 279 293 316 331 317 267 34 96 212 218 211 209 215 223 195 184 181 191 221 210 227 267 266 280 9 150 188 262 145 151 209 217 121 184 230 170 158 226 275 300 35 268 265 231 246 280 308 286 273 250 250 263 279 277 261 255 253 252 256 257 258 265
300 273 241 228 234 235 227 220 208 189 164 129 179 213 229 233 203 188 205 157 104 87 57 352 10 75 290 295 293 317 343 318 341 85 231 253 253 203 210 251 200 188 200 207 224 242 247 273 265 174 219 282 259 265 335 358 148 128 172 224 215 71 129 162 238 302 271 253 264 266 264 278 304 284 299 356 316 281 268 259 259 269 271 264 262 259 260 268
320 268 244 244 243 237 224 211 194 171 142 155 219 232 226 221 217 195 219 35 77 62 82 197 278 337 273 268 265 243 292 322 36 92 261 264 249 168 163 274 239 198 213 220 257 280 276 286 294 124 197 284 10 9 308 336 115 139 194 209 112 187 244 160 184 220 236 247 255 266 271 272 236 248 281 293 276 269 265 269 280 273 258 253 257 260 263 268
316 273 262 251 241 233 213 195 178 157 145 188 220 233 215 222 232 190 181 93 135 131 201 206 223 267 242 238 251 251 258 265 246 201 224 240 254 262 85 263 262 231 214 180 198 256 239 261 271 225 194 281 19 181 213 244 269 143 230 318 117 191 201 189 199 178 221 248 254 256 269 274 242 223 241 244 232 235 255 265 260 248 241 243 247 256 264 262
292 265 262 226 219 210 191 177 164 160 201 202 217 225 214 238 247 214 204 200 185 194 214 203 200 217 226 230 249 257 252 254 250 228 210 213 242 264 257 216 240 260 200 159 197 240 134 244 256 259 105 255 245 210 188 193 207 193 208 228 227 221 200 244 247 150 209 244 249 250 254 267 269 224 218 245 235 224 240 244 245 247 245 248 246 251 262 264
283 265 240 190 190 181 170 162 171 194 207 222 227 228 226 230 248 242 217 206 215 226 205 190 196 210 218 228 241 237 220 235 229 218 221 217 225 242 238 194 195 237 256 158 202 223 151 229 248 245 218 235 242 228 191 194 198 185 196 209 213 218 228 268 256 219 215 233 237 246 246 255 271 260 239 250 245 232 232 225 239 251 244 251 256 253 257 262
249 243 189 174 178 168 157 166 222 190 206 222 224 227 210 203 230 246 226 207 212 225 229 212 211 211 212 222 232 226 219 230 227 222 219 216 219 225 222 195 175 198 285 264 226 211 176 177 243 244 233 243 256 257 214 209 220 219 211 211 220 219 209 231 244 231 225 236 237 254 255 243 259 266 265 261 249 236 229 217 233 257 256 265 274 271 268 263
232 245 178 178 178 167 158 232 210 207 231 230 262 249 195 194 227 236 227 208 200 210 227 220 217 222 222 223 230 229 226 227 224 225 231 229 227 227 230 235 236 230 244 251 236 221 186 185 241 249 254 264 276 292 280 228 201 247 243 223 224 228 222 229 244 245 235 236 232 253 255 240 250 263 270 276 263 241 244 244 244 254 264 267 265 268 270 270
247 263 267 195 187 179 181 225 208 221 227 227 251 242 224 216 220 233 236 208 174 189 217 220 218 227 229 224 229 230 222 223 226 226 233 236 224 225 232 236 237 228 210 202 203 215 211 204 226 242 254 261 269 282 270 238 200 222 239 233 226 229 239 248 265 278 248 235 233 247 255 245 249 261 274 286 280 261 254 246 230 238 258 265 265 272 278 284
287 257 268 207 196 194 218 231 222 233 224 228 237 233 243 247 219 230 240 230 196 182 210 235 222 220 224 223 237 237 221 228 243 229 224 231 231 230 230 229 230 229 224 216 197 189 214 205 206 229 239 239 238 237 235 226 224 226 235 242 235 224 231 243 249 246 244 236 232 241 251 252 257 269 277 278 276 273 268 254 229 235 253 261 263 268 274 278
300 258 254 217 208 219 249 248 230 230 223 229 233 224 230 239 242 224 221 236 236 216 227 256 242 234 225 220 238 246 235 236 242 235 230 238 244 242 230 226 227 228 230 227 206 155 208 216 217 229 232 236 247 251 251 250 244 238 230 238 241 235 232 236 240 241 244 246 241 240 250 256 258 263 268 269 272 276 275 270 265 260 260 257 249 250 259 265
254 264 243 225 228 230 239 250 236 222 224 228 225 219 222 230 244 224 199 222 233 221 230 241 231 235 230 224 235 242 240 238 237 240 244 242 244 259 261 240 231 233 236 231 203 153 171 231 225 231 235 239 249 256 261 263 257 253 251 247 248 246 236 229 235 241 247 255 254 245 248 254 252 249 258 266 269 271 274 279 279 272 267 263 255 253 258 262
241 274 281 275 265 229 233 254 263 259 285 277 244 254 242 233 233 226 222 279 277 219 225 233 225 230 238 242 246 247 243 240 241 245 249 257 273 282 278 264 247 241 239 229 190 176 214 239 231 235 241 241 244 250 254 257 257 255 255 255 253 251 245 238 240 244 244 249 256 255 250 251 251 249 252 259 263 268 276 281 279 275 274 271 267 262 260 265
284 278 286 298 276 262 281 351 357 326 308 296 271 253 255 252 252 246 236 315 323 235 228 244 244 251 276 286 280 286 276 255 258 275 317 337 324 310 293 282 280 284 256 235 216 197 217 239 235 240 248 245 243 248 250 253 257 257 254 253 252 252 251 248 248 248 245 249 256 259 257 256 257 254 252 254 260 268 275 276 277 278 278 276 276 275 273 272
292 239 291 327 289 273 303 325 318 320 306 276 255 238 238 249 264 311 276 241 288 288 244 272 337 349 342 341 326 307 336 36 351 308 340 339 326 330 331 305 324 343 321 280 275 257 226 233 237 245 255 250 244 246 246 247 250 251 251 250 251 254 255 255 254 252 250 253 253 253 256 260 258 256 256 258 261 265 268 270 273 276 278 285 299 313 316 313
272 293 307 312 285 273 291 299 299 305 275 241 237 255 260 247 263 341 311 239 239 285 79 18 355 345 332 322 315 320 360 3 308 279 273 286 290 291 289 284 306 320 310 285 296 301 258 248 250 254 259 249 239 241 243 243 244 246 248 249 249 250 249 249 248 245 245 250 253 254 256 255 251 251 253 256 259 262 263 267 271 279 293 320 355 11 5 357
278 312 343 254 279 269 275 320 316 254 256 255 289 334 290 278 314 345 304 245 159 129 90 38 351 332 324 310 309 327 335 306 290 284 269 253 255 255 245 243 254 266 271 277 294 271 244 263 267 256 260 255 245 246 248 246 245 243 240 238 239 241 243 246 248 249 246 245 248 249 248 250 253 255 259 263 264 264 266 272 286 312 348 20 33 27 12 3